Back to catalog

FENGYUN 1C DEB

AlivePO
NORAD 31566·DEBRIS·🇨🇳 China

Launched May 10, 1999 from Taiyuan Satellite Launch Center

Loading…

Next Passes (next 24 hours)

TLE

FreshSource: Space-Track

Epoch: Sep 13, 2026, 22:28 UTC

1 31566U 99025BZH 26256.93679078  .00003264  00000-0  10429-2 0  9999
2 31566  98.9359 332.4241 0023207 259.5905 158.5631 14.40238447  3463

Track FENGYUN 1C DEB in real time with AllMySat

Download on the App Store